Laredo, TX

4:34 PM CDT on April 25, 2017 (GMT -0500)
Laredo International

Weather History for KLRD - December, 2012

Change the Weather History Date:

Wednesday, December 5, 2012

  Actual Average Record
Temperature  
Mean Temperature 66 °F 59 °F  
Max Temperature 77 °F 70 °F 95 °F (1933)
Min Temperature 54 °F 49 °F 26 °F (1929)
Degree Days  
Heating Degree Days 0 7  
Month to date heating degree days 0 35  
Since 1 July heating degree days 48 150  
Cooling Degree Days 1 1  
Month to date cooling degree days 46 9  
Year to date cooling degree days 5113 4264  
Growing Degree Days 17 (Base 50)    
Moisture  
Dew Point 40 °F    
Average Humidity 43    
Maximum Humidity 81    
Minimum Humidity 21    
Precipitation  
Precipitation 0.00 in 0.02 in 1.60 in (1974)
Month to date precipitation 0.00 0.13  
Year to date precipitation 9.34 19.45  
Sea Level Pressure  
Sea Level Pressure 30.15 in    
Wind  
Wind Speed 6 mph (NNE)    
Max Wind Speed 14 mph    
Max Gust Speed 17 mph    
Visibility 10 miles    
Events      
T = Trace of Precipitation, MM = Missing Value Source: NWS Daily Summary

Daily Weather History Graph

Daily Weather History Graph

Search for Another Location

Airport or City:

Trip Planner

Search our weather history database for the weather conditions in past years. The results will help you decide how hot, cold, wet, or windy it might be!

Date:

Astronomy

Dec. 05, 2012 Rise Set
Actual Time 7:14 AM CST 5:43 PM CST
Civil Twilight 6:48 AM CST 6:08 PM CST
Nautical Twilight 6:19 AM CST 6:37 PM CST
Astronomical Twilight 5:51 AM CST 7:05 PM CST
Moon No Moon Rise 12:02 PM CST (12/5)
Length of Visible Light 11h 19m
Length of Day
10h 28m
Waning Gibbous, 59% of the Moon is Illuminated
Dec 5
Waning Gibbous
Dec 6
Last Quarter
Dec 13
New
Dec 19
First Quarter
Dec 28
Full

Hourly Weather History & Observations

Time (CST) Temp. Dew Point Humidity Pressure Visibility Wind Dir Wind Speed Gust Speed Precip Events Conditions
12:56 AM 65.8 °F 52.9 °F 63% 30.19 in 10.0 mi North 8.1 mph - N/A   Clear
1:56 AM 63.0 °F 50.0 °F 63% 30.20 in 10.0 mi NNE 10.4 mph - N/A   Clear
2:56 AM 61.0 °F 47.8 °F 62% 30.20 in 10.0 mi NNE 6.9 mph - N/A   Clear
3:56 AM 59.9 °F 46.9 °F 62% 30.21 in 10.0 mi NNW 5.8 mph - N/A   Clear
4:56 AM 57.9 °F 46.9 °F 67% 30.22 in 10.0 mi NNW 5.8 mph - N/A   Clear
5:56 AM 57.9 °F 43.9 °F 60% 30.22 in 10.0 mi NNE 9.2 mph - N/A   Clear
6:56 AM 57.9 °F 41.0 °F 53% 30.25 in 10.0 mi Variable 6.9 mph - N/A   Clear
8:56 AM 57.9 °F 45.0 °F 62% 30.28 in 10.0 mi NW 8.1 mph - N/A   Clear
9:56 AM 63.0 °F 41.0 °F 45% 30.27 in 10.0 mi NNW 6.9 mph - N/A   Clear
10:56 AM 68.0 °F 32.9 °F 27% 30.25 in 10.0 mi Calm Calm - N/A   Clear
11:56 AM 70.9 °F 34.0 °F 26% 30.22 in 10.0 mi North 5.8 mph - N/A   Clear
12:56 PM 73.9 °F 36.0 °F 25% 30.17 in 10.0 mi NNW 8.1 mph - N/A   Clear
1:56 PM 75.9 °F 36.0 °F 23% 30.12 in 10.0 mi Variable 5.8 mph - N/A   Clear
2:56 PM 77.0 °F 36.0 °F 23% 30.09 in 10.0 mi North 9.2 mph - N/A   Clear
3:56 PM 77.0 °F 34.9 °F 22% 30.07 in 10.0 mi NW 3.5 mph - N/A   Clear
4:56 PM 75.9 °F 34.9 °F 22% 30.06 in 10.0 mi North 4.6 mph - N/A   Clear
5:56 PM 70.9 °F 36.0 °F 28% 30.06 in 10.0 mi NE 5.8 mph - N/A   Clear
6:56 PM 66.9 °F 36.0 °F 32% 30.06 in 10.0 mi East 4.6 mph - N/A   Clear
7:56 PM 63.9 °F 36.9 °F 37% 30.07 in 10.0 mi ENE 6.9 mph - N/A   Clear
8:56 PM 61.0 °F 36.9 °F 41% 30.06 in 10.0 mi ESE 4.6 mph - N/A   Clear
9:56 PM 61.0 °F 36.9 °F 41% 30.06 in 10.0 mi Calm Calm - N/A   Clear
10:56 PM 59.0 °F 38.8 °F 47% 30.06 in 10.0 mi ESE 4.6 mph - N/A   Clear
11:56 PM 55.9 °F 36.0 °F 47% 30.04 in 10.0 mi East 4.6 mph - N/A   Clear